CZ-3C DEB, 44527

Orbit data source: Space-Track

CZ-3C DEB, 44527 is space debris in HEO originally from a launch on Sun, 31 Oct 2010 UTC launched from the Xichang Space Center, China (XSC). Debris objects in space refer to the collection of defunct objects orbiting the Earth. Examples of debris include non-operational satellites, rocket bodies, and fragments generated from explosions, collisions, or faulty payload assembly.

Not visible in the next 10 days
Identifier
44527, 2010-057BM
Orbit
HEO
Country
Flag of CNCN / PRC
Related business
Manufacturer
CALT
Mission
Spacecraft
Bus & Motor
Unknown
Mass
Unknown
Launch date (UTC)
2010-10-31 (15 years ago)
Launch vehicle
Unknown
Launch site
Xichang Space Center, China (XSC)
Object type
Payload
Rocket body
Debris
Shape & HBR
Unknown shape, 0.3 m
Radar Cross Section
Medium (>0.1 m² and <1 m²)

Expand to show TLE details & history
Last TLE update: 9 hours ago

TLE from 9 hours ago
0 CZ-3C DEB
1 44527U 10057BM  25298.93066571  .00000028  00000-0  12662-2 0  9997
2 44527  19.7411 147.9474 7185163  73.7044 349.2451  2.23720853 73166
Epoch: 2025-10-25T22:20Z
TLE epoch observation values (Epoch: 2025-10-25T22:20:09.517Z)
Latitude
-0.00002°
Longitude
138.46107°
Altitude
3,519.095 km
Speed
8.025 km/s
True Right ascension
09h 52m 13s
True Declination
0° 00' 00"
Sunlit
Object was in daylight at epoch
Visualization orbit readout
Latitude
Unknown
Longitude
Unknown
Altitude
Unknown
Speed
Unknown
Apparent Right ascension
Unknown
Apparent Declination
Unknown
Sunlit
N/A
Visualization observer readout
Local Sidereal Time
02:47:29
Azimuth
Unknown
Elevation
Unknown
Doppler factor
Unknown
Orbital elements
Apogee altitude
36,067.077 km
Perigee altitude
574.16 km
Semi-major axis
24,698.756 km
Eccentricity
0.71852
Inclination
19.7411°
RAAN
147.9474°
Arg. of periapsis
73.7044°
True anomaly
286.82707°
Mean anomaly
349.2451°
Eccentric anomaly
326.55737°
Mean motion
0.55915 °/min
Orbital period
643.83 mins
BSTAR
0.0012662
Loading maneuver chart data...
Computing Atmospheric mass density...
Loading historical data...
Loading historical data...
Loading historical data...
Loading historical data...
Loading historical data...
Loading historical data...
Loading historical data...

Documentation

Showing up to 5 results
|